Simultaneous Nadir Overpasses (SNOs) Predictions

Prediction of SNOs between GOES-16 and AQUA Satellite Orbit:

Table of predicted SNOs for the next 14.0 days since TLE Epoch: 3/4/2023
Index Date Time (GOES-16) GOES-16 Lat,Lon AQUA Lat,Lon Distance(km) Time Diff (sec)
1 03/05/2023 18:35:51 0.06, -75.20 0.64, -72.34 323.76 80
2 03/06/2023 06:56:46 -0.06, -75.21 0.40, -77.42 251.64 80
3 03/08/2023 06:40:38 -0.06, -75.22 -0.27, -74.13 123.94 80
4 03/08/2023 19:04:21 0.06, -75.22 -0.83, -79.23 456.71 80
5 03/10/2023 18:48:12 0.06, -75.24 -0.08, -75.95 79.97 80
6 03/12/2023 18:37:21 0.06, -75.27 0.62, -72.66 297.42 80
7 03/13/2023 06:58:15 -0.05, -75.28 0.49, -77.71 277.06 80
8 03/15/2023 06:42:03 -0.05, -75.31 -0.23, -74.42 100.91 80
9 03/15/2023 19:05:46 0.04, -75.30 -0.87, -79.51 479.32 80
10 03/17/2023 06:28:30 -0.04, -75.33 -0.95, -71.12 479.65 80
11 03/17/2023 18:52:13 0.04, -75.33 -0.13, -76.22 100.25 80
